Location: Saluda
(35.2377°N, 82.3468°W)
Time: 14:59:31
(UTC+00:00)

Explorer 11/Cluster Stage 4 - Pass Details

Date: 09 October 2022
Orbit: 466 x 1247 km, 28.8° (Epoch: 08 December)

Event Time Altitude Azimuth Distance (km) Brightness Sun altitude
Rises 19:34:08 0° 269° (W) 4,165 10.8 37.2°
Reaches altitude 10° 19:37:47 10° 256° (WSW) 3,147 10.6 36.7°
Maximum altitude 19:43:40 23° 208° (SSW) 2,181 10.5 35.8°
Drops below altitude 10° 19:49:00 10° 159° (SSE) 2,814 9.8 35.0°
Sets 19:52:04 0° 145° (SE) 3,629 10.1 34.5°
